| time (UTC) | temp F | wind direction | speed MPH | gust MPH | rain 1hr in | rain 24hr in | rain mn in | humidity % | barometer mb |
| 20260506210056 | 77 | 321 | 0.0 | 3.0 | 0.00 | 0.00 | 0.00 | 78 | 1008.9 |
| 20260506204556 | 78 | 337 | 0.0 | 1.0 | 0.00 | 0.00 | 0.00 | 77 | 1008.8 |
| 20260506203053 | 79 | 0 | 0.0 | 2.0 | 0.00 | 0.00 | 0.00 | 77 | 1009.1 |
| 20260506201554 | 78 | 0 | 0.0 | 2.0 | 0.00 | 0.00 | 0.00 | 78 | 1009.1 |
| 20260506200053 | 78 | 0 | 0.0 | 3.0 | 0.00 | 0.00 | 0.00 | 79 | 1009.0 |
| 20260506194553 | 77 | 69 | 0.0 | 2.0 | 0.00 | 0.00 | 0.00 | 79 | 1009.4 |
| 20260506193057 | 76 | 0 | 0.0 | 2.0 | 0.00 | 0.00 | 0.00 | 79 | 1009.2 |
| 20260506191553 | 75 | 0 | 0.0 | 4.0 | 0.00 | 0.00 | 0.00 | 79 | 1009.2 |
| 20260506190053 | 74 | 0 | 0.0 | 2.0 | 0.00 | 0.00 | 0.00 | 81 | 1009.1 |
| 20260506184555 | 72 | 0 | 0.0 | 4.0 | 0.00 | 0.00 | 0.00 | 82 | 1009.5 |
| 20260506183100 | 70 | 0 | 0.0 | 3.0 | 0.00 | 0.00 | 0.00 | 83 | 1009.8 |
| 20260506181621 | 68 | 0 | 1.0 | 5.0 | 0.00 | 0.00 | 0.00 | 84 | 1010.0 |
| 20260506180054 | 67 | 71 | 1.0 | 4.0 | 0.00 | 0.00 | 0.00 | 86 | 1010.1 |
| 20260506174552 | 66 | 67 | 1.0 | 3.0 | 0.00 | 0.00 | 0.00 | 86 | 1010.6 |
| 20260506173100 | 68 | 355 | 0.0 | 3.0 | 0.00 | 0.00 | 0.00 | 84 | 1011.0 |
| 20260506171552 | 71 | 13 | 0.0 | 3.0 | 0.00 | 0.00 | 0.00 | 82 | 1011.2 |
| 20260506170055 | 75 | 0 | 1.0 | 5.0 | 0.00 | 0.00 | 0.00 | 79 | 1011.2 |
| 20260506164600 | 78 | 0 | 0.0 | 1.0 | 0.00 | 0.00 | 0.00 | 87 | 1011.1 |
| 20260506163103 | 78 | 0 | 0.0 | 1.0 | 0.00 | 0.00 | 0.00 | 87 | 1011.0 |
| 20260506161557 | 78 | 0 | 0.0 | 1.0 | 0.00 | 0.00 | 0.00 | 87 | 1010.8 |
| 20260506160108 | 78 | 0 | 0.0 | 1.0 | 0.00 | 0.00 | 0.00 | 89 | 1010.3 |
| 20260506154601 | 77 | 0 | 0.0 | 1.0 | 0.00 | 0.00 | 0.00 | 89 | 1009.7 |
| 20260506153110 | 77 | 0 | 0.0 | 1.0 | 0.00 | 0.00 | 0.00 | 90 | 1009.7 |
| 20260506151555 | 77 | 0 | 0.0 | 2.0 | 0.00 | 0.00 | 0.00 | 90 | 1009.7 |
| 20260506150059 | 77 | 0 | 0.0 | 2.0 | 0.00 | 0.00 | 0.00 | 90 | 1009.8 |
| 20260506144558 | 76 | 0 | 0.0 | 1.0 | 0.00 | 0.00 | 0.00 | 91 | 1009.8 |
| 20260506143057 | 76 | 0 | 0.0 | 3.0 | 0.00 | 0.00 | 0.00 | 91 | 1009.8 |
| 20260506141555 | 76 | 0 | 0.0 | 3.0 | 0.00 | 0.00 | 0.00 | 92 | 1009.2 |
| 20260506140054 | 75 | 0 | 0.0 | 2.0 | 0.00 | 0.00 | 0.00 | 92 | 1009.1 |
| 20260506134553 | 75 | 82 | 0.0 | 2.0 | 0.00 | 0.00 | 0.00 | 92 | 1008.9 |
| 20260506133053 | 75 | 0 | 0.0 | 1.0 | 0.00 | 0.00 | 0.00 | 92 | 1009.0 |
| 20260506131556 | 75 | 0 | 0.0 | 1.0 | 0.00 | 0.00 | 0.00 | 92 | 1009.1 |
| 20260506130056 | 75 | 0 | 0.0 | 0.0 | 0.00 | 0.00 | 0.00 | 92 | 1009.2 |
| 20260506124556 | 75 | 0 | 0.0 | 1.0 | 0.00 | 0.00 | 0.00 | 92 | 1008.7 |
| 20260506123055 | 75 | 0 | 0.0 | 0.0 | 0.00 | 0.00 | 0.00 | 92 | 1008.7 |
| 20260506121553 | 75 | 0 | 0.0 | 1.0 | 0.00 | 0.00 | 0.00 | 91 | 1008.9 |
| 20260506120057 | 75 | 0 | 0.0 | 1.0 | 0.00 | 0.00 | 0.00 | 91 | 1008.7 |
| 20260506114555 | 75 | 0 | 0.0 | 0.0 | 0.00 | 0.00 | 0.00 | 91 | 1008.7 |
| 20260506113055 | 75 | 0 | 0.0 | 0.0 | 0.00 | 0.00 | 0.00 | 91 | 1008.3 |
| 20260506111554 | 75 | 0 | 0.0 | 1.0 | 0.00 | 0.00 | 0.00 | 91 | 1008.3 |
| 20260506110054 | 75 | 0 | 0.0 | 1.0 | 0.00 | 0.00 | 0.00 | 91 | 1008.1 |
| 20260506104558 | 75 | 0 | 0.0 | 0.0 | 0.00 | 0.00 | 0.00 | 91 | 1008.0 |
| 20260506103057 | 75 | 0 | 0.0 | 0.0 | 0.00 | 0.00 | 0.00 | 91 | 1007.9 |
| 20260506101553 | 75 | 0 | 0.0 | 0.0 | 0.00 | 0.00 | 0.00 | 91 | 1007.9 |
| 20260506100055 | 75 | 0 | 0.0 | 1.0 | 0.00 | 0.00 | 0.00 | 91 | 1007.5 |
| 20260506094553 | 75 | 0 | 0.0 | 1.0 | 0.00 | 0.00 | 0.00 | 91 | 1007.3 |
| 20260506093052 | 75 | 0 | 0.0 | 3.0 | 0.00 | 0.00 | 0.00 | 91 | 1007.3 |
| 20260506091558 | 75 | 0 | 0.0 | 2.0 | 0.00 | 0.00 | 0.00 | 91 | 1007.4 |
| 20260506090100 | 75 | 0 | 0.0 | 3.0 | 0.00 | 0.00 | 0.00 | 91 | 1007.2 |
| 20260506084558 | 75 | 0 | 0.0 | 2.0 | 0.00 | 0.00 | 0.00 | 91 | 1007.1 |
| 20260506083056 | 75 | 0 | 0.0 | 3.0 | 0.00 | 0.00 | 0.00 | 91 | 1007.2 |
| 20260506081557 | 75 | 260 | 0.0 | 2.0 | 0.00 | 0.00 | 0.00 | 91 | 1007.2 |
| 20260506080104 | 75 | 0 | 0.0 | 4.0 | 0.00 | 0.00 | 0.00 | 91 | 1007.1 |
| 20260506073055 | 75 | 0 | 0.0 | 4.0 | 0.00 | 0.00 | 0.00 | 91 | 1007.3 |
| 20260506071604 | 75 | 234 | 1.0 | 4.0 | 0.00 | 0.00 | 0.00 | 90 | 1007.3 |
| 20260506070104 | 75 | 0 | 0.0 | 4.0 | 0.00 | 0.00 | 0.00 | 90 | 1007.3 |
| 20260506061554 | 75 | 0 | 0.0 | 4.0 | 0.00 | 0.00 | 0.00 | 89 | 1008.1 |
| 20260506050107 | 76 | 114 | 0.0 | 3.0 | 0.00 | 0.00 | 0.00 | 87 | 1007.7 |
| 20260506044558 | 76 | 158 | 0.0 | 6.0 | 0.00 | 0.00 | 0.00 | 87 | 1007.8 |
| 20260506043053 | 76 | 73 | 0.0 | 5.0 | 0.00 | 0.00 | 0.00 | 86 | 1007.9 |
| 20260506041552 | 76 | 0 | 0.0 | 3.0 | 0.00 | 0.00 | 0.00 | 86 | 1007.7 |
| 20260506040055 | 77 | 0 | 0.0 | 4.0 | 0.00 | 0.00 | 0.00 | 85 | 1007.4 |
| 20260506034610 | 77 | 116 | 1.0 | 4.0 | 0.00 | 0.00 | 0.00 | 85 | 1007.3 |
| 20260506033054 | 77 | 0 | 1.0 | 4.0 | 0.00 | 0.00 | 0.00 | 85 | 1007.2 |
| 20260506031556 | 77 | 0 | 0.0 | 3.0 | 0.00 | 0.00 | 0.00 | 84 | 1007.2 |
| 20260506030056 | 77 | 154 | 1.0 | 3.0 | 0.00 | 0.00 | 0.00 | 84 | 1006.8 |
| 20260506024612 | 77 | 217 | 0.0 | 3.0 | 0.00 | 0.00 | 0.00 | 83 | 1006.5 |
| 20260506023054 | 78 | 140 | 0.0 | 2.0 | 0.00 | 0.00 | 0.00 | 82 | 1006.4 |
| 20260506021553 | 78 | 94 | 0.0 | 3.0 | 0.00 | 0.00 | 0.00 | 82 | 1006.5 |
| 20260506020054 | 78 | 205 | 0.0 | 4.0 | 0.00 | 0.00 | 0.00 | 82 | 1006.3 |
| 20260506014553 | 79 | 236 | 0.0 | 4.0 | 0.00 | 0.00 | 0.00 | 81 | 1006.2 |
| 20260506013107 | 79 | 0 | 0.0 | 3.0 | 0.00 | 0.00 | 0.00 | 81 | 1005.9 |
| 20260506011606 | 79 | 0 | 0.0 | 2.0 | 0.00 | 0.00 | 0.00 | 80 | 1005.7 |
| 20260506010056 | 80 | 0 | 0.0 | 3.0 | 0.00 | 0.00 | 0.00 | 79 | 1005.2 |
| 20260506004555 | 80 | 277 | 0.0 | 4.0 | 0.00 | 0.00 | 0.00 | 78 | 1005.0 |
| 20260506003055 | 81 | 150 | 0.0 | 3.0 | 0.00 | 0.00 | 0.00 | 78 | 1005.0 |
| 20260506001554 | 81 | 154 | 0.0 | 3.0 | 0.00 | 0.00 | 0.00 | 78 | 1005.2 |
| 20260506000055 | 81 | 0 | 1.0 | 4.0 | 0.00 | 0.00 | 0.00 | 77 | 1005.2 |
| 20260505234557 | 82 | 0 | 1.0 | 5.0 | 0.00 | 0.00 | 0.00 | 77 | 1005.1 |
| 20260505233053 | 82 | 57 | 0.0 | 4.0 | 0.00 | 0.00 | 0.00 | 76 | 1004.9 |
| 20260505231552 | 82 | 0 | 0.0 | 4.0 | 0.00 | 0.00 | 0.00 | 76 | 1004.9 |
| 20260505230104 | 83 | 117 | 0.0 | 3.0 | 0.00 | 0.00 | 0.00 | 76 | 1005.0 |
| 20260505224553 | 83 | 0 | 1.0 | 6.0 | 0.00 | 0.00 | 0.00 | 75 | 1005.1 |
| 20260505223108 | 83 | 113 | 1.0 | 4.0 | 0.00 | 0.00 | 0.00 | 75 | 1004.9 |
| 20260505221557 | 83 | 0 | 1.0 | 6.0 | 0.00 | 0.00 | 0.00 | 76 | 1005.0 |
| 20260505220056 | 83 | 148 | 1.0 | 4.0 | 0.00 | 0.00 | 0.00 | 76 | 1005.2 |
| 20260505214553 | 84 | 255 | 1.0 | 4.0 | 0.00 | 0.00 | 0.00 | 74 | 1005.2 |
| 20260505213100 | 84 | 198 | 1.0 | 6.0 | 0.00 | 0.00 | 0.00 | 73 | 1005.5 |
| 20260505211555 | 84 | 212 | 0.0 | 4.0 | 0.00 | 0.00 | 0.00 | 75 | 1005.3 |